Regional Weather Roundup
Issued by NWS

Home | Current Version | Previous Version | Text Only | Print | Product List | Glossary On
Versions: 1 2 3 4 5 6 7 8 9 10 11 12 13 14 15 16 17 18 19 20 21 22 23 24 25 26 27 28 29 30 31 32 33 34 35 36 37 38 39 40 41 42 43 44 45 46 47 48 49 50
000
ASHW40 PHFO 201343
RWRHI

WEATHER ROUNDUP FOR HAWAII
NATIONAL WEATHER SERVICE HONOLULU HI
300 AM HST MON NOV 20 2017

THIS IS AN AUTOMATED REPORT THAT HAS NOT BEEN QUALITY CONTROLLED.

NOTE..."FAIR" INDICATES FEW OR NO CLOUDS BELOW 12,000 FEET WITH NO
SIGNIFICANT WEATHER AND/OR OBSTRUCTIONS TO VISIBILITY.

* - THESE SITES REPORT LIMITED FIELDS
# - BUOY DATA PROVIDED BY PACIFIC ISLANDS OCEAN OBSERVING SYSTEM.

HIZ001>004-201400-
KAUAI-NIIHAU-

CITY           SKY/WX    TMP DP  RH WIND       PRES   REMARKS
LIHUE APT      CLOUDY    64  62  93 W9        29.92F
PORT ALLEN*      N/A     63 N/A N/A N8          N/A
POIPU*           N/A     64 N/A N/A N3          N/A
PRINCEVILLE*     N/A     66 N/A N/A S2          N/A
KOKOLE POINT*  NOT AVBL
MOLOAA DAIRY*    N/A     66  63  88 W5G12       N/A
WAIMEA HTS*      N/A     66  59  77 N3G9        N/A
PUU OPAE*        N/A     59  57  94 N7          N/A
PUU LUA*       NOT AVBL
MAKAHA RIDGE*    N/A     61  57  88 N3G10       N/A
$$

HIZ005>011-201400-
OAHU-

CITY           SKY/WX    TMP DP  RH WIND       PRES   REMARKS
HONOLULU       PTCLDY    68  59  73 N5        29.89F
KALAELOA       CLOUDY    65  59  81 NE3       29.90F
KANEOHE MCB    CLOUDY    70  63  78 W15       29.85F
WHEELER FIELD  FAIR      61  60  96 N3        29.91F
BELLOWS*         N/A    N/A N/A N/A W5          N/A
KAHUKU*          N/A    N/A N/A N/A W1          N/A
WHEELER*         N/A    N/A N/A N/A N3          N/A
WAIANAE HARBOR   N/A    N/A N/A N/A NE3         N/A
DILLINGHAM*    NOT AVBL
KAHUKU TRN*      N/A     75  68  78 N2          N/A
KAWAILOA*        N/A     63  57  82 CALM        N/A
KII*             N/A     66  61  82 SW3G17      N/A
MAKUA RANGE*     N/A     66  59  77 W7          N/A
OAHU FOREST NW NOT AVBL
SCHOFIELD BRK*   N/A     61  59  94 NE1         N/A
SCHOFIELD S*   NOT AVBL
WAIANAE VLY*   NOT AVBL
KUAOKALA*        N/A     68  57  68 N6G16       N/A
HONOULIUULI*   NOT AVBL
MOKUOLOE IS*   NOT AVBL
PALEHUA*         N/A     61  52  72 VRB7G20     N/A
WAIAWA PHB*    NOT AVBL
$$

HIZ012>013-201400-
MOLOKAI-

CITY           SKY/WX    TMP DP  RH WIND       PRES   REMARKS
MOLOKAI AIRPT  CLEAR     62  58  86 N5        29.88F
KALAUPAPA      NOT AVBL
MAKAPULAPAI*     N/A     64  57  77 SW2         N/A
MOLOKAI 1*     NOT AVBL
PUU ALII*        N/A     51  51 100 SW1G7       N/A
$$

HIZ016-201400-
KAHOOLAWE-

CITY           SKY/WX    TMP DP  RH WIND       PRES   REMARKS
KAHOOLAWE*     NOT AVBL
HAKIOAWA*        N/A     64  57  77 MISG      30.27F
HONOKANAIA*    NOT AVBL
KANELOA*         N/A     66  57  72 N13G21    29.91F
KEALIALALO*    NOT AVBL
LUA MAKIKA*    NOT AVBL
$$

HIZ014>015-201400-
LANAI-

CITY           SKY/WX    TMP DP  RH WIND       PRES   REMARKS
LANAI CITY     FAIR      62  55  77 N10       29.92F
LANAI 1*       NOT AVBL
$$

HIZ017>028-201400-
MAUI-

CITY           SKY/WX    TMP DP  RH WIND       PRES   REMARKS
KAHULUI        CLEAR     61  57  87 SE3       29.87F
KAPALUA-W MAUI NOT AVBL
HANA AIRPORT   CLEAR    N/A N/A N/A SW3       29.87F
HANA*            N/A     66 N/A N/A W5          N/A
HALEAKALA SUMM   N/A     37 -20   8 NW24        N/A  WCI  26
MAALAEA BAY*     N/A     57 N/A N/A N5          N/A
HALEAKALA*     NOT AVBL
KAUPO GAP*     NOT AVBL
KULA 1*          N/A    N/A N/A N/A NE3         N/A
$$

HIZ023>026-201400-
BIG ISLAND OF HAWAII COAST AND LOWER SLOPES-

CITY           SKY/WX    TMP DP  RH WIND       PRES   REMARKS
KAILUA KONA    CLEAR     71  57  61 SE9       29.83F
HILO           PTCLDY    64  55  72 SW5       29.84F
HONOKAA*         N/A     63 N/A N/A VRB1        N/A
KAWAIHAE MWT*    N/A     68 N/A N/A E3          N/A
KAWAIHAE*        N/A     70 N/A N/A NE3       29.83F
SOUTH POINT*     N/A     64 N/A N/A W3          N/A
UPOLU AIRPORT* NOT AVBL
KAMUELA*       SUNNY     50  46  87 E9        29.93F
HAKALAU*         N/A     36  34  93 W3          N/A
KALOKO-HONOKO*   N/A     68  55  64 NE7       29.82F
PALI 2*          N/A     61  52  72 SE3         N/A
KEALAKOMO*       N/A     73  59  60 NW12        N/A
KAUPULEHU*       N/A     63  48  59 SE12        N/A
KAPAPALA*        N/A     60  60 100 NW6         N/A
LOWER KAHUKU*    N/A     93 N/A N/A N2          N/A
PUHE CS*         N/A     66  50  55 E9G16       N/A
PUHO CS*         N/A     67  50  54 E5G10       N/A
PTA KEAMUKU*     N/A     48  43  81 S8          N/A
WAIKOLOA*        N/A     59  48  67 SE6G13      N/A
$$

HIZ027>028-201400-
BIG ISLAND OF HAWAII INTERIOR AND SUMMMITS-

CITY           SKY/WX    TMP DP  RH WIND       PRES   REMARKS
BRADSHAW FIELD CLOUDY    31  19  59 SE5       30.10F WCI  27
MK VISITOR CEN   N/A     48 -31   3 N9          N/A
MAUNA KEA*       N/A     27 -29   7 S56G69      N/A  WCI   6
MAUNA LOA*       N/A     34 -33   5 MISG        N/A
MAUNA LOA 1*   NOT AVBL
PTA KIPUKA*      N/A    N/A N/A N/A NW3         N/A
PTA RANGE 17*    N/A     64  61  88 W1          N/A
PTA WEST*        N/A     66  61  82 SE13        N/A
NENE CABIN*      N/A    N/A N/A N/A NE5         N/A
AHUMOA*          N/A     43   5  21 E5          N/A
PTA PORTABLE*  NOT AVBL
PUU MALI*        N/A     43 N/A N/A SW10        N/A
$$

HIC003-201400-
NORTHWEST ISLANDS-

CITY           SKY/WX    TMP DP  RH WIND       PRES   REMARKS
MIDWAY ISLAND  PTCLDY    72  59  64 E23       30.19S
MIDWAY NOS*      N/A     73 N/A N/A MISG      30.16F
FRENCH FRIGATE NOT AVBL
$$

PHZ110>124-180-201400-
BUOY REPORTS

STATION/POSITION TIME  TEMP    WIND        PRES    WAVE   SWELL
                       AIR SEA DIR/SP/G            HT/PER HT/DIR
                 (UTC) (F)     (DEG/KT/KT) (MB)    (FT/S) (FT/D)
BUOY 51001       1310   70 78   40/ 12/ 17 1014.2
BUOY 51101       1250   71 78   20/ 16/ 21 1014.6F  12/12  10/ 10
BUOY 51100       NOT AVBL
BUOY 51002       1310   77 80  350/ 14/ 17 1010.2
BUOY 51003       1250   76 80   10/ 14/ 17 1011.7F   9/14   8/340
BUOY 51004       1310   76 80  360/  6/ 10 1009.5
WAIMEA BAY#      1302      77                N/A    11/13  10/360
MOKAPU POINT#    1304      79                N/A    10/13   8/360
LANAI#           NOT AVBL
BARBERS PT 2#    NOT AVBL
PAUWELA#         NOT AVBL
HILO#            1257      79                N/A    10/14   8/360
KANEOHE BAY#     NOT AVBL
KANEOHE BAY 2#   NOT AVBL
HANALEI#         1322      79                N/A    11/13   8/ 10
KAHULUI HARBOR   1312   64 78  160/  3/  3 1011.0
HONOLULU HARBOR  1318   67 79   40/  2/  2 1012.6
PEARL HARBOR#    1300      79                N/A     1/14   2/170
KILO NALU        NOT AVBL
HILO HARBOR      1312   67 78  210/  4/  6 1010.1
MOKUOLOE         1236   71 76   CALM  /  2 1011.9F
NAWILIWILI       1318   66     260/  8/ 11 1012.5
WHOTS BUOY       NOT AVBL
BUOY 51028       NOT AVBL
$$

......................KEY........................................
  SKY/WX - SKY CONDITIONS/PRESENT WEATHER
  TMP    - TEMPERATURE IN FAHRENHEIT
  DWPT   - DEWPOINT IN FAHRENHEIT
  RH     - RELATIVE HUMIDITY IN PERCENT
  WIND   - DIRECTION AND SPEED /MPH FOR ISLANDS...KTS FOR BUOYS/
  PRES   - MEAN SEA LEVEL PRESSURE IN INCHES OF HG
  VSB    - VISIBILITY IN MILES
  HX     - HEAT INDEX
  WCI    - WIND CHILL INDEX
  VRB    - VARIABLE WIND DIRECTION
  N/A    - NOT AVAILABLE




USA.gov is the U.S. government's official web portal to all federal, state and local government web resources and services.